Regional Weather Roundup
Issued by NWS

Home | Current Version | Previous Version | Text Only | Print | Product List | Glossary On
Versions: 1 2 3 4 5 6 7 8 9 10 11 12 13 14 15 16 17 18 19 20 21 22 23 24 25 26 27 28 29 30 31 32 33 34 35 36 37 38 39 40 41 42 43 44 45 46 47 48 49 50
000
ASUS43 KOAX 200210
RWRNE

WEATHER ROUNDUP FOR NEBRASKA
NATIONAL WEATHER SERVICE OMAHA NE
900 PM CDT FRI SEP 19 2014

NOTES: SATELLITE DATA IS BEING USED TO AUGMENT CLOUD COVER ABOVE
       12000 FEET.
       "FAIR" INDICATES FEW OR NO CLOUDS BELOW 12,000 FEET WITH NO
       SIGNIFICANT WEATHER AND/OR OBSTRUCTIONS TO VISIBILITY.

  * THESE STATIONS DO NOT REPORT WEATHER SUCH AS RAIN...SNOW OR FOG.

NEZ001>004-019>022-054>056-200300-
NEBRASKA PANHANDLE

CITY           SKY/WX    TMP DP  RH WIND       PRES   REMARKS
SCOTTSBLUFF    PTCLDY    71  51  49 NE5       29.92R
ALLIANCE       MOCLDY    67  53  61 NE6       29.92R
CHADRON        CLEAR     71  51  49 NE6       29.88R
KIMBALL        CLOUDY    67  55  64 SW6       29.97R
$$

NEZ057>060-069>072-079>082-200300-
SOUTHWEST NEBRASKA

CITY           SKY/WX    TMP DP  RH WIND       PRES   REMARKS
NORTH PLATTE   PTCLDY    74  59  59 S6        29.82R
IMPERIAL       MOCLDY    74  56  53 S3        29.86R
LEXINGTON      CLEAR     74  63  66 S10       29.83R
MCCOOK         CLEAR     79  59  50 S14       29.84R
OGALLALA       CLOUDY    71  61  69 W3        29.87R
$$

NEZ005>010-023>029-035>040-094-200300-
NORTH CENTRAL NEBRASKA

CITY           SKY/WX    TMP DP  RH WIND       PRES   REMARKS
VALENTINE      MOCLDY    74  56  53 NE3       29.84R
AINSWORTH      CLOUDY    73  60  65 NE6       29.84R
BROKEN BOW     CLEAR     78  60  53 S8        29.80R
O`NEILL        PTCLDY    75  65  70 CALM      29.79R
ORD            CLEAR     76  63  64 S8        29.77R
THEDFORD       PTCLDY    75  59  58 CALM      29.85R
$$

NEZ041-046>049-061>064-073>077-083>087-200300-
SOUTH CENTRAL NEBRASKA

CITY           SKY/WX    TMP DP  RH WIND       PRES   REMARKS
GRAND ISLAND   CLEAR     77  63  61 S12       29.82R
AURORA         CLEAR     78  61  57 S12       29.82R
HASTINGS       CLEAR     75  60  59 S8        29.84R
HEBRON         CLEAR     75  65  70 S6        29.85R
HOLDREGE       CLEAR     74  58  57 S8        29.85R
KEARNEY *      CLEAR     73  61  64 S10       29.84R
YORK           CLEAR     73  66  78 S7        29.83R
$$

NEZ011>018-030>034-042>045-200300-
NORTHEAST NEBRASKA

CITY           SKY/WX    TMP DP  RH WIND       PRES   REMARKS
NORFOLK        CLEAR     79  65  62 S15       29.74S
ALBION         CLEAR     75  64  68 S9        29.77S
BLAIR          CLEAR     77  69  76 S10       29.81R
COLUMBUS *     CLEAR     79  64  61 S15       29.79S
FREMONT        CLEAR     80  65  61 S12       29.79S
TEKAMAH        CLEAR     76  66  71 S9        29.77R
WAYNE          PTCLDY    72  66  80 S6        29.75S
$$

NEZ050>053-065>068-078-088>093-200300-
SOUTHEAST NEBRASKA

CITY           SKY/WX    TMP DP  RH WIND       PRES   REMARKS
LINCOLN        PTCLDY    75  66  73 S12       29.82R
OMAHA EPPLEY   PTCLDY    77  69  76 S18       29.81R
BEATRICE       CLEAR     78  69  74 S15       29.85R
FALLS CITY     CLEAR     73  68  84 S9        29.88R
NEBRASKA CITY    N/A     73  65  75 S15       29.86R
PLATTSMOUTH    CLEAR     74  68  79 S12G17    29.85R
$$

NEZ044-045-051>053-067-200300-
OMAHA AREA

CITY           SKY/WX    TMP DP  RH WIND       PRES   REMARKS
OMAHA EPPLEY   PTCLDY    77  69  76 S18       29.81R
BLAIR          CLEAR     77  69  76 S10       29.81R
FREMONT        CLEAR     80  65  61 S12       29.79S
MILLARD        CLEAR     78  71  77 SE10G16   29.81S
OFFUTT AFB     CLEAR     75  74  96 SE10      29.83R
PLATTSMOUTH    CLEAR     74  68  79 S12G17    29.85R
WAHOO          FAIR      76  65  70 S8        29.80R
$$


USA.gov is the U.S. government's official web portal to all federal, state and local government web resources and services.